Starlink 11399

operational
NORAD ID: 63063 Int'l Des: 2025-035 Owner: SPXS Country: US Constellation: starlink
LEOCIRCULAR

Über Starlink 11399

Beschreibung wird geladen...

Live-Position

3D-Globus wird geladen...

Nächste Überflüge

Höhenverlauf

Altitude vs Time

uPlot chart will show altitude changes over time

Zweizeiliger Elementsatz

1 63063U 25035M 25257.43429790 .00132770 00000-0 10206-2 0 9993
2 63063 42.9984 357.4644 0000615 249.8500 110.2302 15.70867656 33500
Epoch: 14. Sept. 2025 • Age: 32 hours

Aktueller Status

Höhe 360.8 km
Geschwindigkeit 7.69 km/s
Subsatellitenpunkt -23.25°S, 52.48°E
Startdatum 21. Feb. 2025
Alter 0.5 years
Typ internet

Technische Details

Klassifizierung Payload
Masse 960.00 kg
Trockenmasse 910.00 kg
Gesamtmasse 960.00 kg
Länge 0.30 m
Durchmesser 4.10 m
Spannweite 29.00 m
Form Box + pan
Hersteller SPXS
Bus-Typ Starlink V2MD
Phasenstatus In Orbit
Besitzer/Staat SPXS/US

Große Konstellationen

Loading constellations...